JZA781 KDCA-CYYZ

Flight info

Callsign JZA781
Flight time N/A
Altitude 33000
Route HORTO4 JERES Q221 DLMAR/N0420F340 DCT WOZEE LINNG3
Aircraft CRJ9/M-SDFGIRWY/S

Departure

Time 2026-05-06 11:31
Airport Ronald Reagan Washington National Airport (KDCA)

Arrival

Time N/A
Airport Toronto Pearson International Airport (CYYZ)
Time Latitude Longitude Altitude Speed Heading
2026-05-06 11:04 38.84683 -77.04348 22 ft 0 kts 94°
2026-05-06 11:22 38.84684 -77.04366 22 ft 4 kts 104°
2026-05-06 11:22 38.84697 -77.04392 22 ft 4 kts 149°
2026-05-06 11:22 38.84716 -77.04392 24 ft 2 kts 204°
2026-05-06 11:22 38.84718 -77.04391 22 ft 0 kts 204°
2026-05-06 11:25 38.84712 -77.04395 22 ft 5 kts 204°
2026-05-06 11:25 38.84662 -77.04420 22 ft 4 kts 181°
2026-05-06 11:26 38.84645 -77.04415 22 ft 7 kts 153°
2026-05-06 11:26 38.84598 -77.04367 22 ft 6 kts 138°
2026-05-06 11:26 38.84563 -77.04288 22 ft 13 kts 89°
2026-05-06 11:26 38.84582 -77.04168 22 ft 16 kts 77°
2026-05-06 11:27 38.84627 -77.04045 22 ft 16 kts 40°
2026-05-06 11:27 38.84725 -77.03982 25 ft 16 kts 24°
2026-05-06 11:27 38.84824 -77.03940 22 ft 16 kts 358°
2026-05-06 11:27 38.84946 -77.03957 22 ft 19 kts 355°
2026-05-06 11:28 38.85079 -77.03966 22 ft 19 kts 357°
2026-05-06 11:28 38.85215 -77.03982 22 ft 20 kts 354°
2026-05-06 11:28 38.85350 -77.03997 23 ft 20 kts 356°
2026-05-06 11:28 38.85491 -77.04013 22 ft 21 kts 350°
2026-05-06 11:29 38.85640 -77.04043 23 ft 22 kts 354°
2026-05-06 11:29 38.85791 -77.04055 24 ft 22 kts 358°
2026-05-06 11:29 38.85925 -77.04047 23 ft 10 kts 42°
2026-05-06 11:29 38.85958 -77.03976 23 ft 13 kts 33°
2026-05-06 11:30 38.86058 -77.03935 22 ft 17 kts 15°
2026-05-06 11:30 38.86097 -77.03880 21 ft 1 kts 102°
2026-05-06 11:30 38.86084 -77.03863 23 ft 6 kts 168°
2026-05-06 11:30 38.86041 -77.03863 22 ft 11 kts 175°
2026-05-06 11:31 38.85712 -77.03831 22 ft 86 kts 176°
2026-05-06 11:31 38.84895 -77.03754 22 ft 145 kts 175°
2026-05-06 11:31 38.83761 -77.03650 414 ft 168 kts 178°
2026-05-06 11:31 38.82636 -77.03559 1499 ft 156 kts 178°
2026-05-06 11:32 38.81534 -77.03632 2367 ft 159 kts 184°
2026-05-06 11:32 38.80453 -77.03588 3372 ft 151 kts 181°
2026-05-06 11:32 38.79393 -77.03508 4117 ft 157 kts 184°
2026-05-06 11:32 38.78266 -77.03462 4658 ft 173 kts 185°
2026-05-06 11:33 38.77079 -77.03506 5388 ft 171 kts 199°
2026-05-06 11:33 38.76184 -77.04395 6210 ft 163 kts 240°
2026-05-06 11:33 38.75636 -77.05643 7054 ft 161 kts 237°
2026-05-06 11:33 38.75029 -77.06889 7736 ft 165 kts 236°
2026-05-06 11:34 38.74665 -77.07636 8179 ft 167 kts 240°
2026-05-06 11:34 38.74488 -77.09659 9059 ft 178 kts 268°
2026-05-06 11:34 38.74537 -77.11268 9750 ft 181 kts 265°
2026-05-06 11:34 38.74496 -77.12880 10433 ft 182 kts 262°
2026-05-06 11:35 38.74409 -77.14504 11115 ft 183 kts 260°
2026-05-06 11:35 38.74291 -77.16161 11642 ft 195 kts 260°
2026-05-06 11:35 38.74155 -77.17970 12000 ft 213 kts 261°
2026-05-06 11:35 38.74162 -77.19940 12438 ft 233 kts 278°
2026-05-06 11:36 38.74876 -77.21863 13088 ft 246 kts 300°
2026-05-06 11:36 38.75964 -77.23589 13797 ft 251 kts 304°
2026-05-06 11:36 38.77145 -77.25256 14429 ft 258 kts 306°
2026-05-06 11:36 38.77991 -77.26393 14553 ft 275 kts 308°
2026-05-06 11:37 38.79421 -77.28166 14843 ft 298 kts 315°
2026-05-06 11:37 38.81902 -77.29811 15334 ft 330 kts 336°
2026-05-06 11:37 38.84107 -77.30739 15753 ft 336 kts 335°
2026-05-06 11:37 38.86372 -77.31559 16285 ft 344 kts 345°
2026-05-06 11:38 38.87946 -77.31999 16618 ft 342 kts 336°
2026-05-06 11:38 38.90105 -77.33222 17155 ft 337 kts 326°
2026-05-06 11:38 38.92176 -77.34647 17644 ft 339 kts 326°
2026-05-06 11:38 38.94277 -77.36062 18098 ft 342 kts 327°
2026-05-06 11:39 38.96426 -77.37404 18564 ft 344 kts 329°
2026-05-06 11:39 38.98617 -77.38689 18981 ft 347 kts 329°
2026-05-06 11:39 39.00817 -77.39975 19418 ft 348 kts 329°
2026-05-06 11:39 39.03024 -77.41266 19835 ft 349 kts 329°
2026-05-06 11:40 39.05238 -77.42557 20236 ft 350 kts 329°
2026-05-06 11:40 39.07439 -77.43823 20597 ft 352 kts 329°
2026-05-06 11:40 39.09703 -77.45048 20955 ft 358 kts 336°
2026-05-06 11:40 39.12174 -77.45723 21301 ft 366 kts 344°
2026-05-06 11:41 39.14699 -77.46183 21632 ft 368 kts 346°
2026-05-06 11:41 39.17277 -77.46437 21949 ft 374 kts 352°
2026-05-06 11:41 39.19900 -77.46422 22250 ft 378 kts 354°
2026-05-06 11:41 39.22534 -77.46308 22554 ft 380 kts 355°
2026-05-06 11:42 39.25191 -77.46177 22862 ft 381 kts 355°
2026-05-06 11:42 39.27854 -77.46075 23125 ft 382 kts 354°
2026-05-06 11:42 39.30478 -77.46034 23374 ft 383 kts 353°
2026-05-06 11:42 39.33190 -77.45993 23647 ft 384 kts 353°
2026-05-06 11:43 39.35830 -77.45953 23881 ft 386 kts 353°
2026-05-06 11:43 39.38496 -77.45906 24132 ft 387 kts 353°
2026-05-06 11:43 39.41172 -77.45865 24331 ft 389 kts 353°
2026-05-06 11:44 39.46592 -77.45774 24780 ft 390 kts 353°
2026-05-06 11:44 39.49311 -77.45730 24978 ft 391 kts 353°
2026-05-06 11:44 39.52040 -77.45686 25171 ft 393 kts 353°
2026-05-06 11:44 39.54789 -77.45642 25321 ft 394 kts 353°
2026-05-06 11:45 39.57565 -77.45596 25523 ft 395 kts 353°
2026-05-06 11:45 39.60318 -77.45548 25702 ft 396 kts 353°
2026-05-06 11:45 39.63081 -77.45502 25881 ft 396 kts 353°
2026-05-06 11:45 39.65810 -77.45453 26085 ft 396 kts 352°
2026-05-06 11:46 39.68570 -77.45413 26260 ft 398 kts 353°
2026-05-06 11:46 39.71334 -77.45365 26418 ft 400 kts 353°
2026-05-06 11:46 39.74128 -77.45321 26613 ft 400 kts 353°
2026-05-06 11:46 39.76951 -77.45274 26785 ft 401 kts 353°
2026-05-06 11:47 39.79707 -77.45226 26930 ft 402 kts 353°
2026-05-06 11:47 39.82512 -77.45179 27086 ft 403 kts 352°
2026-05-06 11:47 39.85321 -77.45133 27242 ft 404 kts 353°
2026-05-06 11:47 39.88130 -77.45084 27419 ft 403 kts 352°
2026-05-06 11:48 39.90939 -77.45040 27563 ft 404 kts 352°
2026-05-06 11:48 39.93758 -77.44992 27687 ft 405 kts 352°
2026-05-06 11:48 39.96584 -77.44943 27839 ft 405 kts 353°
2026-05-06 11:48 39.99405 -77.44900 27944 ft 407 kts 352°
2026-05-06 11:49 40.05086 -77.44803 28144 ft 410 kts 352°
2026-05-06 11:49 40.07819 -77.44756 28254 ft 410 kts 352°
2026-05-06 11:49 40.10804 -77.44705 28357 ft 412 kts 352°
2026-05-06 11:50 40.13678 -77.44657 28473 ft 413 kts 352°
2026-05-06 11:50 40.16545 -77.44610 28584 ft 413 kts 352°
2026-05-06 11:50 40.19428 -77.44558 28723 ft 413 kts 352°
2026-05-06 11:50 40.22309 -77.44510 28828 ft 414 kts 352°
2026-05-06 11:51 40.25195 -77.44459 28940 ft 415 kts 352°
2026-05-06 11:51 40.28078 -77.44415 29023 ft 415 kts 352°
2026-05-06 11:51 40.33858 -77.44315 29233 ft 416 kts 352°
2026-05-06 11:52 40.39633 -77.44216 29427 ft 417 kts 352°
2026-05-06 11:52 40.45447 -77.44121 29611 ft 418 kts 352°
2026-05-06 11:53 40.51242 -77.44019 29773 ft 419 kts 352°
2026-05-06 11:53 40.57088 -77.43918 29944 ft 420 kts 352°
2026-05-06 11:54 40.62947 -77.43815 30077 ft 421 kts 352°
2026-05-06 11:54 40.68809 -77.43717 30220 ft 422 kts 352°
2026-05-06 11:55 40.74697 -77.43613 30349 ft 423 kts 352°
2026-05-06 11:55 40.80581 -77.43507 30505 ft 423 kts 352°
2026-05-06 11:56 40.86473 -77.43404 30605 ft 424 kts 352°
2026-05-06 11:56 40.92381 -77.43305 30745 ft 424 kts 352°
2026-05-06 11:57 40.98250 -77.43202 30896 ft 423 kts 352°
2026-05-06 11:57 41.01213 -77.43151 31138 ft 418 kts 352°
2026-05-06 11:57 41.04067 -77.43103 31385 ft 413 kts 351°
2026-05-06 11:58 41.06960 -77.43052 31640 ft 408 kts 351°
2026-05-06 11:58 41.09752 -77.43005 31878 ft 403 kts 351°
2026-05-06 11:58 41.12541 -77.42955 32114 ft 398 kts 351°
2026-05-06 11:58 41.15332 -77.42918 32347 ft 393 kts 350°
2026-05-06 11:59 41.18010 -77.42869 32580 ft 389 kts 350°
2026-05-06 11:59 41.20747 -77.42826 32708 ft 387 kts 350°
2026-05-06 11:59 41.26147 -77.42733 32799 ft 389 kts 350°
2026-05-06 12:00 41.31584 -77.42638 32812 ft 392 kts 350°
2026-05-06 12:00 41.37039 -77.42541 32813 ft 396 kts 350°
2026-05-06 12:01 41.42577 -77.42450 32830 ft 400 kts 350°
2026-05-06 12:01 41.48171 -77.42345 32838 ft 403 kts 350°
2026-05-06 12:02 41.53809 -77.42238 32838 ft 407 kts 350°
2026-05-06 12:02 41.59501 -77.42132 32828 ft 410 kts 351°
2026-05-06 12:03 41.65174 -77.42334 32814 ft 398 kts 338°
2026-05-06 12:03 41.67766 -77.43407 32834 ft 385 kts 328°
2026-05-06 12:03 41.70241 -77.44776 32831 ft 384 kts 326°
2026-05-06 12:04 41.75052 -77.47834 32804 ft 381 kts 322°
2026-05-06 12:04 41.79309 -77.51837 32827 ft 371 kts 311°